Regional Weather Roundup
Issued by NWS

Home | Current Version | Previous Version | Text Only | Print | Product List | Glossary Off
Versions: 1 2 3 4 5 6 7 8 9 10 11 12 13 14 15 16 17 18 19 20 21 22 23 24 25 26 27 28 29 30 31 32 33 34 35 36 37 38 39 40 41 42 43 44 45 46 47 48 49 50

000
ASUS43 KLSX 011259
RWRMO

WEATHER SUMMARY FOR MISSOURI
NATIONAL WEATHER SERVICE SPRINGFIELD MO
800 AM CDT WED OCT 01 2014

NOTE: "FAIR" INDICATES FEW OR NO CLOUDS BELOW 12,000 FEET WITH NO
       SIGNIFICANT WEATHER AND/OR OBSTRUCTIONS TO VISIBILITY.
       CURRENT SKY AND/OR WEATHER CONDITIONS ARE NOT AVAILABLE FOR
       CHILLICOTHE AND FARMINGTON.

MOZ001>031-035>038-043-044-053-054-011400-
...NORTHERN AND WESTERN MISSOURI...

CITY           SKY/WX    TMP DP  RH WIND       PRES   REMARKS
KANSAS CTY INT CLOUDY    65  64  97 SE10      29.78S
KANSAS C DTWN  MOCLDY    68  64  87 E5        29.78R
LEE`S SUMMIT   MOCLDY    65  62  90 VRB5      29.80R
ST JOSEPH      CLOUDY    65  63  93 SE9       29.77R
CHILLICOTHE      N/A     64  62  93 E8        29.82F
KIRKSVILLE     CLOUDY    62  59  90 E6        29.86S FOG

$$
MOZ066>068-077>081-088>096-101>105-011400-
...SOUTHWEST MISSOURI...

CITY           SKY/WX    TMP DP  RH WIND       PRES   REMARKS
SPRINGFIELD    CLEAR     66  57  72 S13       29.85R
JOPLIN         CLOUDY    71  60  68 S13       29.82R

$$
MOZ032>034-039>042-045>050-055>058-069>072-011400-
...CENTRAL MISSOURI...

CITY           SKY/WX    TMP DP  RH WIND       PRES   REMARKS
COLUMBIA       PTCLDY    62  56  80 SE9       29.85S
JEFFERSON CITY PTCLDY    64  56  75 SE6       29.85S
ROLLA          CLOUDY    63  54  72 S7        29.88R
SEDALIA        TSTM      67  60  78 SE13      29.82R
WHITEMAN AFB   PTCLDY    64  59  82 S10       29.79S
OSAGE BEACH    PTCLDY    64  54  68 SE3       29.86R

$$
MOZ051-052-059>065-011400-
...EAST CENTRAL MISSOURI...

CITY           SKY/WX    TMP DP  RH WIND       PRES   REMARKS
ST LOUIS INTL  MOSUNNY   64  60  87 E8        29.92R
SPIRIT OF STL  SUNNY     64  59  83 CALM      29.90R
ST CHARLES     SUNNY     61  58  90 E8        29.91R FOG

$$
MOZ072>076-082>087-097>100-106>115-011400-
...SOUTH CENTRAL AND SOUTHEAST MISSOURI...

CITY           SKY/WX    TMP DP  RH WIND       PRES   REMARKS
CAPE GIRARDEAU PTSUNNY   60  58  92 CALM      29.93R FOG
FARMINGTON     SUNNY     55  54  94 CALM      29.94S
POPLAR BLUFF   SUNNY     61  56  83 CALM      29.90S
WEST PLAINS    MOSUNNY   62  55  77 SE3       29.92R

$$



USA.gov is the U.S. government's official web portal to all federal, state and local government web resources and services.